Theta_e
358 360 363 359 359 360 358 360 362 363 362 362 360 358 358 360 363 364 364 361 362 365 365 363 363 366 356 354 355 353 349 348 342 343 345 351 358 358 357 358 356 357 352
358 363 361 361 362 357 359 359 362 362 363 363 362 361 358 358 362 362 361 358 359 360 363 365 364 362 366 367 358 362 358 359 349 355 355 349 358 362 359 357 355 352 351
357 355 358 358 358 361 360 360 361 362 362 362 362 361 360 358 360 362 362 360 359 360 362 363 364 365 365 363 364 359 357 356 358 353 351 351 352 355 359 364 361 362 355
354 354 359 361 362 358 363 363 361 362 362 362 364 363 361 359 357 358 359 361 361 360 363 365 365 365 365 367 366 367 365 362 360 353 348 347 348 357 352 349 350 352 351
357 356 360 364 364 365 365 364 363 364 362 363 363 362 361 359 353 358 357 358 361 361 363 365 366 362 351 354 362 370 373 361 354 351 349 348 348 348 352 351 352 353 359
360 358 362 364 365 365 366 365 365 364 363 363 363 361 360 356 338 336 350 354 357 360 361 363 366 356 354 342 341 341 352 366 368 357 351 350 365 361 358 355 354 352 351
361 361 363 365 365 366 366 366 366 366 364 363 362 362 362 363 334 331 337 354 355 358 364 362 359 355 355 363 345 338 339 337 339 359 361 362 364 367 370 366 364 361 358
361 361 363 365 364 366 366 366 367 364 364 365 362 364 363 362 333 329 333 356 360 362 363 364 367 366 366 362 361 360 362 363 362 357 360 360 362 364 366 368 369 358 359
359 361 363 364 364 364 363 364 365 363 363 364 364 364 366 366 330 328 336 355 354 362 362 365 366 367 349 335 359 362 363 362 346 335 337 337 336 336 343 357 353 353 348
358 360 364 364 365 363 365 366 366 363 361 360 361 364 353 366 333 325 335 355 356 352 362 369 340 353 335 328 360 361 359 358 360 362 365 353 338 353 334 354 360 353 352
356 357 361 363 366 367 368 367 366 364 364 363 362 364 363 359 360 322 321 358 353 352 352 353 357 330 327 325 324 363 360 358 356 364 364 365 367 367 367 370 364 358 351
360 358 362 364 359 359 367 365 366 367 364 366 363 360 360 365 337 324 319 324 343 357 355 354 359 325 319 320 326 332 325 331 357 358 359 360 358 358 364 366 367 361 358
360 361 361 363 360 365 364 362 359 363 358 358 357 358 358 360 365 326 318 319 323 346 359 349 329 318 314 323 318 321 322 354 357 355 354 354 360 365 366 363 360 359 359
359 359 360 360 359 360 360 360 358 357 357 356 356 356 357 359 361 365 357 341 324 335 340 351 348 337 330 341 349 343 355 360 360 358 358 362 363 360 356 356 349 352 349
357 358 359 359 359 360 361 358 359 365 351 358 357 359 357 358 359 347 351 367 364 351 351 361 360 359 356 355 356 359 362 364 355 354 355 354 354 352 349 351 347 346 346
353 353 354 354 357 357 357 357 311 315 309 309 311 329 360 331 322 315 318 316 310 313 353 359 357 354 354 354 355 357 359 354 359 355 353 351 348 347 348 345 346 347 342
344 352 355 351 354 354 356 356 355 334 308 308 308 307 309 312 310 306 302 304 307 318 359 359 357 358 357 359 360 359 357 358 359 353 351 350 351 351 343 347 347 343 341
334 317 351 355 358 358 355 351 349 353 354 356 316 315 307 304 302 303 302 311 344 329 354 356 357 360 361 361 361 361 361 359 357 354 352 350 349 350 349 347 343 341 339
331 336 338 347 351 344 350 342 342 347 353 354 352 319 313 300 298 298 299 353 360 359 360 360 360 360 360 360 360 359 357 353 350 347 346 350 351 349 346 342 340 323 327
326 323 325 335 341 345 348 342 341 343 349 349 350 351 344 328 343 345 334 341 358 361 361 363 361 362 362 363 360 356 351 347 349 346 347 351 351 345 341 340 339 338 336
324 328 324 329 327 338 344 344 345 345 345 347 350 349 324 354 357 358 359 355 358 362 364 363 363 364 361 358 355 352 351 346 345 346 347 346 345 342 343 341 338 338 338
325 325 326 326 328 331 336 342 343 343 345 345 343 341 309 349 356 358 358 359 360 361 361 359 357 358 357 353 351 351 349 347 346 343 342 342 341 341 340 338 337 336 336
323 324 326 328 328 323 330 334 337 338 341 345 341 343 346 346 353 356 357 356 353 352 351 349 348 348 349 348 348 347 345 344 344 344 341 340 338 338 337 335 333 332 335
314 316 318 323 327 330 330 331 334 328 337 341 341 341 340 337 335 329 332 334 334 334 338 339 333 327 335 337 339 339 340 325 331 341 341 339 337 330 334 332 332 331 332
303 304 305 305 306 311 316 317 318 318 316 313 312 313 314 313 312 311 312 312 314 312 310 313 314 310 305 310 313 313 298 287 299 297 331 335 334 333 333 332 333 335 333
299 298 298 298 298 299 298 298 299 300 300 300 301 301 302 302 301 301 302 301 300 299 300 299 297 299 302 300 300 290 285 287 299 287 307 330 333 333 334 333 334 333 333
Wind_Speed
22 20 19 19 20 18 16 15 14 13 13 13 11 12 12 11 11 10 10 9 9 8 8 7 8 7 7 7 6 6 7 7 9 8 7 6 8 9 10 9 9 10 10
22 20 21 19 18 19 17 17 15 15 15 15 13 12 12 13 12 12 12 10 11 11 10 10 10 8 10 8 8 8 8 7 9 10 9 9 10 9 10 12 10 11 12
23 24 22 21 20 18 19 17 16 15 15 16 15 14 13 13 13 12 12 12 12 11 11 12 11 11 10 9 9 8 9 9 9 10 11 10 10 9 10 10 10 11 11
24 23 21 21 20 20 18 17 17 16 16 16 15 15 14 14 14 14 14 13 12 12 12 12 12 12 12 11 11 11 10 10 10 10 11 11 10 9 9 11 10 10 10
21 22 21 20 20 19 17 17 17 17 16 16 16 16 15 14 13 15 14 14 13 13 13 13 13 13 10 10 9 9 9 10 11 11 11 11 11 10 9 10 13 11 11
21 21 19 19 19 19 19 18 17 17 17 16 17 16 16 13 14 14 13 14 15 14 14 14 14 12 12 12 13 15 14 12 12 12 13 14 11 11 11 12 13 14 15
20 20 19 20 19 19 18 17 18 18 16 17 17 17 17 17 12 14 15 15 14 14 14 14 14 13 13 15 15 17 17 17 18 16 16 15 16 14 13 13 14 13 14
19 20 20 19 19 18 18 18 17 16 17 16 17 17 16 15 13 15 14 16 14 16 15 15 15 16 14 14 15 16 16 15 15 13 16 15 15 13 13 13 11 6 8
21 21 21 20 19 18 19 18 17 16 16 16 16 17 17 16 17 17 15 17 18 17 17 17 17 17 15 12 16 17 17 16 13 15 17 17 14 12 13 12 10 10 8
23 22 19 19 18 19 18 17 16 15 16 14 17 17 17 17 14 17 18 13 15 14 15 16 17 20 12 12 16 16 17 15 15 16 14 10 12 12 16 11 9 7 7
19 20 18 18 18 17 16 15 15 15 14 15 15 14 16 16 16 18 20 16 14 13 14 13 13 19 20 18 15 17 16 12 13 13 11 10 9 9 9 7 8 7 5
17 18 17 17 15 15 16 15 15 14 14 13 14 14 13 14 15 15 20 22 15 14 14 12 11 11 16 18 15 17 13 12 13 12 11 8 5 9 10 8 5 6 6
16 16 16 16 16 13 15 15 13 14 13 14 13 12 12 12 13 19 19 20 22 15 13 11 7 4 8 10 13 12 11 10 11 11 10 8 11 8 5 4 5 7 9
15 15 14 14 14 14 12 12 12 13 13 13 12 12 12 12 12 11 12 12 16 12 17 15 12 8 8 10 10 9 9 11 11 10 10 9 7 5 4 4 4 6 5
13 13 13 12 13 13 11 9 11 11 7 12 11 11 12 12 12 11 10 10 11 13 12 11 11 11 9 7 8 10 11 11 9 9 8 6 5 5 5 6 4 6 7
11 10 10 10 11 10 11 9 9 8 7 8 8 6 8 1 7 9 9 8 1 10 10 10 7 7 8 10 10 10 10 11 9 8 7 7 6 6 7 6 7 7 7
9 6 5 3 8 10 8 7 6 4 3 3 6 4 5 8 5 0 0 1 5 8 9 9 10 9 10 10 9 9 9 8 8 8 7 7 7 7 7 8 8 8 7
5 7 6 5 4 6 8 8 4 4 4 5 9 9 8 9 7 6 5 9 5 4 7 9 9 9 8 10 8 9 8 7 7 6 6 6 7 8 8 8 8 8 7
7 9 5 5 4 5 8 9 8 4 3 8 2 3 7 4 3 3 8 10 12 11 10 11 11 10 9 7 7 7 7 6 6 6 6 7 8 7 7 9 8 5 4
5 4 4 6 6 3 4 5 9 6 9 6 11 9 10 9 9 9 8 9 12 10 9 10 9 8 10 8 7 7 7 7 8 8 7 10 9 9 9 10 9 8 9
4 2 3 6 7 4 5 3 8 8 7 9 10 7 6 7 7 6 7 8 9 10 10 10 9 9 7 7 8 8 8 7 8 8 8 9 9 9 9 8 7 9 8
6 5 5 4 4 2 5 6 5 7 9 9 8 7 7 6 8 6 5 5 6 7 5 4 5 6 5 6 7 7 8 8 8 8 9 9 9 9 9 8 8 9 9
7 8 6 5 4 4 5 7 8 8 9 9 6 5 3 5 6 5 3 4 2 2 2 2 3 4 3 4 4 5 7 7 8 6 8 9 7 9 8 9 10 9 10
9 9 10 10 10 9 5 5 3 8 7 9 6 5 6 6 5 6 6 6 6 5 5 2 5 7 4 3 3 4 5 10 10 5 6 9 8 8 9 10 9 11 11
10 10 11 10 9 9 9 9 8 8 7 7 7 6 6 6 7 7 7 7 6 7 8 7 8 10 12 11 9 8 11 10 10 13 7 6 9 10 11 10 11 11 12
12 12 11 10 10 10 10 9 9 9 9 9 8 8 8 8 8 8 8 8 8 8 9 9 9 12 12 10 12 11 7 5 5 4 7 9 7 8 10 12 16 12 11
Wind_Direction
198 195 200 201 205 210 218 219 222 220 211 220 217 218 213 212 211 213 233 250 222 227 237 234 228 240 252 245 227 240 250 250 264 271 279 276 247 259 282 270 252 259 256
197 194 195 198 202 205 212 214 211 216 212 215 214 217 216 215 214 215 222 233 226 233 231 231 231 230 222 243 259 251 262 262 267 273 280 280 261 260 262 273 276 277 276
194 193 195 200 201 205 206 211 210 210 215 216 212 213 217 217 213 212 223 227 234 234 235 234 234 233 236 252 250 255 241 232 240 257 275 276 280 282 278 268 261 264 268
194 196 191 193 196 203 204 203 208 209 215 217 213 213 217 222 221 223 221 227 234 236 237 239 239 239 241 243 242 247 251 263 263 263 271 277 274 280 275 279 276 265 275
193 197 193 193 192 195 200 201 203 207 212 217 215 214 216 220 221 219 224 228 229 237 243 243 240 243 251 253 257 243 250 250 258 263 268 271 273 273 282 298 298 289 283
193 198 192 193 192 192 195 197 199 204 209 212 216 214 215 223 215 208 219 226 231 234 240 242 247 242 236 230 238 252 265 263 256 267 276 279 286 275 275 281 294 299 296
193 193 192 192 193 195 192 193 198 203 203 211 215 215 216 220 214 202 201 229 236 232 236 243 247 248 227 247 228 228 240 241 241 261 271 272 283 284 286 284 284 288 291
193 191 191 192 193 193 192 195 198 202 205 208 212 214 217 219 205 199 194 226 235 241 245 242 243 250 253 256 254 255 253 250 233 230 241 256 260 267 271 277 291 294 277
195 194 192 190 191 192 195 195 198 203 205 209 212 212 215 222 197 197 189 225 236 239 242 242 243 247 246 217 246 257 260 260 259 236 242 251 255 256 263 285 279 284 291
195 195 191 189 189 194 194 192 195 202 208 212 215 216 218 224 197 193 194 225 233 238 236 235 232 245 245 212 237 252 259 263 268 275 271 238 245 246 237 238 261 258 265
192 193 190 191 191 192 189 191 194 201 206 212 216 218 222 219 225 188 191 221 234 231 240 243 240 207 221 229 224 248 255 275 271 270 271 270 273 272 267 224 219 237 261
189 190 188 189 193 191 193 193 197 199 207 209 215 221 217 223 217 194 194 209 228 239 245 247 247 193 199 217 222 241 255 264 264 268 271 271 263 259 269 273 252 221 231
187 186 186 188 193 192 192 193 195 200 213 210 210 217 222 213 219 206 192 203 220 238 245 251 320 159 208 214 224 240 232 249 250 254 252 250 253 271 278 242 201 238 252
180 180 181 186 190 200 190 196 206 203 207 217 213 216 217 217 218 212 200 201 223 213 241 257 260 279 273 266 257 217 233 245 248 246 255 260 266 246 204 207 240 263 263
177 178 178 186 188 189 206 201 208 218 227 213 218 216 216 217 217 212 215 201 204 207 221 228 234 229 233 225 231 244 251 246 234 235 241 233 217 196 205 208 223 247 258
164 170 169 180 173 190 184 181 85 84 29 10 12 356 238 173 52 177 191 235 77 136 196 227 215 226 230 237 235 236 234 233 230 230 228 225 210 204 205 205 233 236 247
71 80 70 179 178 179 177 165 184 150 132 266 284 278 276 318 22 44 35 68 143 155 234 212 226 214 228 240 246 245 240 232 228 222 218 209 208 212 190 216 212 233 228
61 105 83 141 150 180 156 141 94 340 296 259 219 236 225 255 251 249 148 159 204 225 226 228 231 240 240 243 243 249 248 240 218 204 211 203 208 216 217 236 227 221 236
27 50 25 313 175 206 209 176 69 294 272 269 159 217 195 202 242 223 186 240 238 234 218 225 228 241 246 239 233 235 221 205 203 192 200 220 224 227 230 229 221 236 232
70 111 273 287 293 205 165 214 111 206 242 256 251 250 149 173 195 189 200 214 235 245 230 235 249 219 235 236 228 215 210 204 204 204 217 226 216 211 222 220 229 205 206
7 345 227 243 236 258 36 155 208 217 225 237 238 242 143 227 232 215 193 209 230 242 242 240 233 239 237 226 216 210 211 210 222 225 214 229 233 226 235 232 209 225 211
351 338 318 285 289 171 223 246 238 239 225 239 240 125 128 247 251 227 218 211 210 227 278 307 288 264 249 230 228 233 231 233 218 227 237 236 232 230 230 222 216 225 227
341 337 320 295 277 290 257 230 235 239 238 220 258 289 172 263 260 253 231 219 161 130 41 322 317 284 326 311 284 266 261 258 251 234 249 248 228 237 219 218 215 216 227
5 1 358 353 9 318 316 290 305 38 345 352 353 354 8 18 17 40 37 59 61 45 18 71 64 42 38 340 320 305 333 1 335 305 259 261 225 217 229 219 214 217 229
40 35 25 18 17 11 7 16 19 25 28 28 25 21 31 31 32 30 27 32 52 68 59 51 36 42 37 23 10 348 2 346 316 331 278 249 241 232 230 228 228 224 217
47 50 47 42 37 36 34 31 32 34 37 33 33 35 42 48 44 41 46 47 54 53 60 56 50 49 51 33 25 11 330 337 339 312 288 283 238 237 229 224 229 236 223